Regional Weather Roundup
Issued by NWS

Home | Current Version | Previous Version | Text Only | Print | Product List | Glossary On
Versions: 1 2 3 4 5 6 7 8 9 10 11 12 13 14 15 16 17 18 19 20 21 22 23 24 25 26 27 28 29 30 31 32 33 34 35 36 37 38 39 40 41 42 43 44 45 46 47 48 49 50
000
ASHW40 PHFO 191412
RWRHI

WEATHER ROUNDUP FOR HAWAII
NATIONAL WEATHER SERVICE HONOLULU HI
400 AM HST SUN FEB 19 2017

THIS IS AN AUTOMATED REPORT THAT HAS NOT BEEN QUALITY CONTROLLED.

NOTE..."FAIR" INDICATES FEW OR NO CLOUDS BELOW 12,000 FEET WITH NO
SIGNIFICANT WEATHER AND/OR OBSTRUCTIONS TO VISIBILITY.

* - THESE SITES REPORT LIMITED FIELDS

HIZ001>004-191500-
KAUAI-NIIHAU-

CITY           SKY/WX    TMP DP  RH WIND       PRES   REMARKS
LIHUE APT      CLOUDY    69  57  65 N15       30.15S
PORT ALLEN*      N/A     68 N/A N/A E7          N/A
POIPU*           N/A     70 N/A N/A NE9G21      N/A
PRINCEVILLE*     N/A     70 N/A N/A N7G16       N/A
KOKOLE POINT*  NOT AVBL
MOLOAA DAIRY*    N/A     68  57  68 VRB3G12     N/A
WAIMEA HTS*    NOT AVBL
PUU OPAE*      NOT AVBL
PUU LUA*       NOT AVBL
MAKAHA RIDGE*  NOT AVBL
$$

HIZ005>011-191500-
OAHU-

CITY           SKY/WX    TMP DP  RH WIND       PRES   REMARKS
HONOLULU       CLOUDY    72  59  63 N8        30.09F
KALAELOA       CLOUDY    72  60  66 N8G20     30.11R
KANEOHE MCB    NOT AVBL
WHEELER FIELD  NOT AVBL
BELLOWS*       NOT AVBL
KAHUKU*        NOT AVBL
WHEELER*       NOT AVBL
WAIANAE HARBOR NOT AVBL
DILLINGHAM*    NOT AVBL
KAHUKU TRN*      N/A     84  73  70 SW9G18      N/A  HX  91
KAWAILOA*        N/A     64  59  82 N8G21       N/A
KII*             N/A     72  61  68 NE16G22     N/A
MAKUA RANGE*     N/A     72  61  68 W14G35      N/A
OAHU FOREST NW NOT AVBL
SCHOFIELD BRK*   N/A     66  61  82 MISG        N/A
SCHOFIELD S*   NOT AVBL
WAIANAE VLY*   NOT AVBL
KUAOKALA*      NOT AVBL
HONOULIUULI*   NOT AVBL
MOKUOLOE IS*   NOT AVBL
PALEHUA*       NOT AVBL
WAIAWA PHB*    NOT AVBL
$$

HIZ012>013-191500-
MOLOKAI-

CITY           SKY/WX    TMP DP  RH WIND       PRES   REMARKS
MOLOKAI AIRPT  CLOUDY    72  64  76 N16G25    30.11S
KALAUPAPA      NOT AVBL
MAKAPULAPAI*   NOT AVBL
MOLOKAI 1*     NOT AVBL
PUU ALII*      NOT AVBL
$$

HIZ016-191500-
KAHOOLAWE-

CITY           SKY/WX    TMP DP  RH WIND       PRES   REMARKS
KAHOOLAWE*     NOT AVBL
HAKIOAWA*      NOT AVBL
HONOKANAIA*      N/A     73  66  79 N14G28      N/A
KANELOA*         N/A     70  64  83 N21G33    30.11F
KEALIALALO*    NOT AVBL
LUA MAKIKA*    NOT AVBL
$$

HIZ014>015-191500-
LANAI-

CITY           SKY/WX    TMP DP  RH WIND       PRES   REMARKS
LANAI CITY       N/A     66  62  87 NE24      30.10F
LANAI 1*       NOT AVBL
$$

HIZ017>028-191500-
MAUI-

CITY           SKY/WX    TMP DP  RH WIND       PRES   REMARKS
KAHULUI        CLOUDY    73  66  78 NE20      30.09S
KAPALUA-W MAUI NOT AVBL
HANA AIRPORT   CLOUDY    73  66  78 N6        30.13R
HANA*            N/A     73 N/A N/A N9G17       N/A
HALEAKALA SUMM   N/A     39  30  70 N17         N/A
MAALAEA BAY*   NOT AVBL
HALEAKALA*     NOT AVBL
KAUPO GAP*     NOT AVBL
KULA 1*          N/A     54  34  46 E3G12       N/A
$$

HIZ023>026-191500-
BIG ISLAND OF HAWAII COAST AND LOWER SLOPES-

CITY           SKY/WX    TMP DP  RH WIND       PRES   REMARKS
KAILUA KONA    CLEAR     72  64  76 NE3       30.03F
HILO           PTCLDY    67  64  90 SW6       30.06F
HONOKAA*         N/A     68 N/A N/A VRB1        N/A
KAWAIHAE MWT*    N/A     73 N/A N/A SE2         N/A
KAWAIHAE*      NOT AVBL
SOUTH POINT*     N/A     66 N/A N/A W7          N/A
UPOLU AIRPORT* NOT AVBL
KAMUELA*       CLOUDY    64  57  77 NE15      30.16R
HAKALAU*         N/A    N/A N/A N/A W5G12       N/A
KALOKO-HONOKO* NOT AVBL
PALI 2*          N/A     63  57  82 S21G30      N/A
KEALAKOMO*       N/A     75  61  60 N17G25      N/A
KAUPULEHU*     NOT AVBL
KAPAPALA*        N/A     58  58 100 N6          N/A
LOWER KAHUKU*  NOT AVBL
PUHE CS*       NOT AVBL
PUHO CS*       NOT AVBL
PTA KEAMUKU*     N/A     59  52  77 CALM        N/A
WAIKOLOA*      NOT AVBL
$$

HIZ027>028-191500-
BIG ISLAND OF HAWAII INTERIOR AND SUMMMITS-

CITY           SKY/WX    TMP DP  RH WIND       PRES   REMARKS
BRADSHAW FIELD NOT AVBL
MK VISITOR CEN   N/A     43  25  49 N3          N/A
MAUNA KEA*       N/A     32  -9  16 SW17        N/A  WCI  21
MAUNA LOA*     NOT AVBL
MAUNA LOA 1*   NOT AVBL
PTA KIPUKA*      N/A     46  45  93 E1G7        N/A
PTA RANGE 17*    N/A     48  41  76 SE3         N/A
PTA WEST*        N/A     50  46  87 SE10        N/A
NENE CABIN*    NOT AVBL
AHUMOA*        NOT AVBL
PTA PORTABLE*  NOT AVBL
PUU MALI*        N/A     50  32  50 E3          N/A
$$

HIC003-191500-
NORTHWEST ISLANDS-

CITY           SKY/WX    TMP DP  RH WIND       PRES   REMARKS
MIDWAY ISLAND  CLOUDY    63  46  55 E12       30.36F
MIDWAY NOS*    NOT AVBL
FRENCH FRIGATE NOT AVBL
$$

PHZ110>124-180-191500-
BUOY REPORTS

STATION/POSITION TIME  TEMP    WIND        PRES    WAVE   SWELL
                       AIR SEA DIR/SP/G            HT/PER HT/DIR
                 (UTC) (F)     (DEG/KT/KT) (MB)    (FT/S) (FT/D)
BUOY 51001       1350   66 73   10/ 19/ 25 1023.0F  11/12   8/340
BUOY 51101       1350   66 72   10/ 21/ 27 1023.4F  12/11  10/330
BUOY 51100       NOT AVBL
BUOY 51002       1350   76 78   50/ 12/ 16 1016.0F   6/ 8   5/110
BUOY 51003       1350   75 78   40/ 19/ 23 1017.2F   9/ 7   2/340
BUOY 51004       1350      77   80/ 16/ 17 1016.2F   6/ 8   5/120
BARBERS PT BUOY  NOT AVBL
WAIMEA BAY BUOY  1302      75                N/A     7/ 6   3/330
KAILUA BAY BUOY  1334      76                N/A     5/ 6   2/350
LANAI BUOY       1345      77                N/A     3/12   2/260
BARBERS PT 2     1339      77                N/A     4/11   2/270
PAUWELA MAUI     1339      76                N/A     5/ 5   2/340
HILO             1342      77                N/A     5/12   2/330
KANEOHE BAY BUOY 1336      76                N/A     6/ 6   2/340
HANALEI KAUAI    1352      76                N/A     9/ 8   3/320
KAHULUI HARBOR   1342   72 77   20/ 17/ 22 1019.1R
HONOLULU HARBOR  1348   72 76   50/  4/ 10 1019.7S
KILO NALU        NOT AVBL
HILO HARBOR      1342   68 76  200/  4/  5 1017.7F
MOKUOLOE         1336   73 76   20/ 14/ 17 1019.7F
NAWILIWILI       1348   69     350/  8/ 13 1020.5F
WHOTS BUOY       NOT AVBL
BUOY 51028       NOT AVBL
$$

......................KEY........................................
  SKY/WX - SKY CONDITIONS/PRESENT WEATHER
  TMP    - TEMPERATURE IN FAHRENHEIT
  DWPT   - DEWPOINT IN FAHRENHEIT
  RH     - RELATIVE HUMIDITY IN PERCENT
  WIND   - DIRECTION AND SPEED /MPH FOR ISLANDS...KTS FOR BUOYS/
  PRES   - MEAN SEA LEVEL PRESSURE IN INCHES OF HG
  VSB    - VISIBILITY IN MILES
  HX     - HEAT INDEX
  WCI    - WIND CHILL INDEX
  VRB    - VARIABLE WIND DIRECTION
  N/A    - NOT AVAILABLE



USA.gov is the U.S. government's official web portal to all federal, state and local government web resources and services.